TimeMDT,TemperatureF,Dew PointF,Humidity,Sea Level PressureIn,VisibilityMPH,Wind Direction,Wind SpeedMPH,Gust SpeedMPH,PrecipitationIn,Events,Conditions,WindDirDegrees,DateUTC
12:15 AM,33.8,33.8,100,30.27,4.0,SE,15.0,-,N/A,,Overcast,130,2012-10-07 06:15:00
12:35 AM,32.0,32.0,100,30.27,10.0,SE,11.5,17.3,N/A,,Overcast,130,2012-10-07 06:35:00
1:15 AM,32.0,32.0,100,30.27,10.0,ESE,11.5,-,N/A,,Overcast,120,2012-10-07 07:15:00
1:35 AM,32.0,32.0,100,30.27,8.0,ESE,12.7,-,N/A,,Overcast,120,2012-10-07 07:35:00
1:55 AM,32.0,32.0,100,30.27,6.0,ESE,10.4,16.1,N/A,,Overcast,120,2012-10-07 07:55:00
2:15 AM,32.0,32.0,100,30.27,5.0,SE,11.5,-,N/A,,Overcast,130,2012-10-07 08:15:00
2:35 AM,32.0,32.0,100,30.27,4.0,ESE,10.4,16.1,N/A,,Overcast,120,2012-10-07 08:35:00
2:55 AM,32.0,32.0,100,30.27,3.0,SE,9.2,-,N/A,,Overcast,130,2012-10-07 08:55:00
3:15 AM,32.0,32.0,100,30.25,2.5,ESE,10.4,-,N/A,,Overcast,120,2012-10-07 09:15:00
3:35 AM,32.0,32.0,100,30.24,2.5,SE,8.1,-,N/A,,Overcast,130,2012-10-07 09:35:00
3:55 AM,32.0,32.0,100,30.24,1.2,ESE,9.2,-,N/A,,Overcast,120,2012-10-07 09:55:00
4:15 AM,32.0,32.0,100,30.24,0.5,ESE,9.2,-,N/A,Fog,Fog,120,2012-10-07 10:15:00
4:35 AM,32.0,32.0,100,30.23,0.2,SE,8.1,-,N/A,Fog,Fog,140,2012-10-07 10:35:00
4:55 AM,32.0,32.0,100,30.23,0.2,SE,9.2,-,N/A,Fog,Fog,130,2012-10-07 10:55:00
5:15 AM,32.0,32.0,100,30.22,0.2,SE,6.9,-,N/A,Fog,Fog,130,2012-10-07 11:15:00
5:55 AM,32.0,32.0,100,30.23,0.5,ESE,9.2,-,N/A,Fog,Fog,110,2012-10-07 11:55:00
6:15 AM,32.0,32.0,100,30.23,0.5,ESE,6.9,-,N/A,Fog,Fog,110,2012-10-07 12:15:00
6:35 AM,32.0,32.0,100,30.23,1.0,ESE,6.9,-,N/A,,Overcast,120,2012-10-07 12:35:00
6:55 AM,32.0,32.0,100,30.23,0.8,SE,6.9,-,N/A,,Overcast,130,2012-10-07 12:55:00
7:15 AM,32.0,32.0,100,30.23,2.5,ESE,5.8,-,N/A,,Overcast,120,2012-10-07 13:15:00
7:35 AM,32.0,32.0,100,30.23,5.0,ESE,6.9,-,N/A,,Overcast,120,2012-10-07 13:35:00
7:55 AM,32.0,32.0,100,30.23,6.0,ESE,4.6,-,N/A,,Overcast,120,2012-10-07 13:55:00
8:15 AM,32.0,32.0,100,30.23,10.0,SE,5.8,-,N/A,,Overcast,130,2012-10-07 14:15:00
8:35 AM,33.8,32.0,93,30.24,10.0,SE,4.6,-,N/A,,Overcast,130,2012-10-07 14:35:00
8:55 AM,33.8,32.0,93,30.24,10.0,ESE,6.9,-,N/A,,Overcast,120,2012-10-07 14:55:00
9:15 AM,35.6,33.8,93,30.24,10.0,ESE,5.8,-,N/A,,Overcast,120,2012-10-07 15:15:00
9:35 AM,35.6,33.8,93,30.24,10.0,East,5.8,-,N/A,,Overcast,90,2012-10-07 15:35:00
9:55 AM,35.6,33.8,93,30.24,10.0,ESE,3.5,-,N/A,,Overcast,120,2012-10-07 15:55:00
10:15 AM,35.6,35.6,100,30.24,10.0,SE,6.9,-,N/A,,Overcast,140,2012-10-07 16:15:00
10:35 AM,35.6,35.6,100,30.23,10.0,SE,5.8,-,N/A,,Overcast,130,2012-10-07 16:35:00
10:55 AM,37.4,35.6,93,30.23,10.0,Calm,Calm,-,N/A,,Overcast,0,2012-10-07 16:55:00
11:15 AM,39.2,35.6,87,30.22,10.0,NNE,3.5,-,N/A,,Overcast,30,2012-10-07 17:15:00
11:35 AM,41.0,37.4,87,30.22,10.0,Calm,Calm,-,N/A,,Mostly Cloudy,0,2012-10-07 17:35:00
11:55 AM,44.6,37.4,76,30.21,10.0,NNW,3.5,-,N/A,,Partly Cloudy,330,2012-10-07 17:55:00
12:15 PM,46.4,37.4,71,30.20,10.0,NNE,5.8,-,N/A,,Clear,30,2012-10-07 18:15:00
12:35 PM,48.2,35.6,62,30.20,10.0,SSW,3.5,-,N/A,,Clear,200,2012-10-07 18:35:00
12:55 PM,50.0,37.4,62,30.19,10.0,NNE,3.5,-,N/A,,Clear,20,2012-10-07 18:55:00
1:15 PM,53.6,37.4,54,30.19,10.0,North,4.6,-,N/A,,Clear,360,2012-10-07 19:15:00
1:35 PM,55.4,37.4,51,30.17,10.0,NNW,6.9,-,N/A,,Clear,330,2012-10-07 19:35:00
1:55 PM,59.0,35.6,42,30.16,10.0,WNW,10.4,-,N/A,,Clear,290,2012-10-07 19:55:00
2:15 PM,60.8,35.6,39,30.16,10.0,North,11.5,20.7,N/A,,Clear,350,2012-10-07 20:15:00
2:35 PM,62.6,35.6,37,30.16,10.0,North,10.4,-,N/A,,Clear,10,2012-10-07 20:35:00
2:55 PM,62.6,33.8,34,30.16,10.0,North,12.7,19.6,N/A,,Clear,360,2012-10-07 20:55:00
3:15 PM,62.6,32.0,32,30.16,10.0,North,8.1,-,N/A,,Clear,350,2012-10-07 21:15:00
3:35 PM,62.6,32.0,32,30.16,10.0,North,9.2,17.3,N/A,,Clear,350,2012-10-07 21:35:00
3:55 PM,62.6,32.0,32,30.16,10.0,NNW,11.5,18.4,N/A,,Clear,340,2012-10-07 21:55:00
4:15 PM,62.6,32.0,32,30.16,10.0,NW,8.1,17.3,N/A,,Clear,320,2012-10-07 22:15:00
4:35 PM,62.6,30.2,30,30.16,10.0,WNW,10.4,-,N/A,,Clear,300,2012-10-07 22:35:00
4:55 PM,62.6,28.4,27,30.16,10.0,NNW,5.8,-,N/A,,Clear,330,2012-10-07 22:55:00
5:15 PM,60.8,30.2,31,30.16,10.0,North,8.1,-,N/A,,Clear,350,2012-10-07 23:15:00
5:35 PM,60.8,30.2,31,30.16,10.0,North,9.2,-,N/A,,Clear,350,2012-10-07 23:35:00
5:55 PM,59.0,30.2,34,30.16,10.0,NNW,8.1,-,N/A,,Clear,330,2012-10-07 23:55:00
6:15 PM,57.2,32.0,38,30.16,10.0,NW,8.1,-,N/A,,Clear,320,2012-10-08 00:15:00
6:35 PM,50.0,35.6,58,30.18,10.0,SE,8.1,-,N/A,,Clear,140,2012-10-08 00:35:00
6:55 PM,48.2,35.6,62,30.18,10.0,South,5.8,-,N/A,,Clear,180,2012-10-08 00:55:00
7:15 PM,46.4,35.6,66,30.18,10.0,SSW,5.8,-,N/A,,Clear,210,2012-10-08 01:15:00
7:35 PM,46.4,33.8,62,30.19,10.0,SSE,4.6,-,N/A,,Clear,160,2012-10-08 01:35:00
7:55 PM,42.8,32.0,66,30.20,10.0,SSE,8.1,-,N/A,,Clear,160,2012-10-08 01:55:00
8:15 PM,41.0,32.0,70,30.21,10.0,SSE,6.9,-,N/A,,Clear,160,2012-10-08 02:15:00
8:35 PM,41.0,32.0,70,30.21,10.0,SSE,5.8,-,N/A,,Clear,150,2012-10-08 02:35:00
8:55 PM,39.2,32.0,75,30.22,10.0,SE,5.8,-,N/A,,Clear,140,2012-10-08 02:55:00
9:15 PM,39.2,32.0,75,30.22,10.0,SE,6.9,-,N/A,,Clear,130,2012-10-08 03:15:00
9:35 PM,37.4,32.0,81,30.23,10.0,SSE,6.9,-,N/A,,Clear,150,2012-10-08 03:35:00
9:55 PM,37.4,32.0,81,30.23,10.0,SE,5.8,-,N/A,,Clear,140,2012-10-08 03:55:00
10:15 PM,37.4,32.0,81,30.23,10.0,SE,4.6,-,N/A,,Clear,140,2012-10-08 04:15:00
10:35 PM,37.4,32.0,81,30.23,10.0,Calm,Calm,-,N/A,,Clear,0,2012-10-08 04:35:00
10:55 PM,37.4,32.0,81,30.23,10.0,Calm,Calm,-,N/A,,Clear,0,2012-10-08 04:55:00
11:15 PM,37.4,30.2,75,30.23,10.0,Calm,Calm,-,N/A,,Clear,0,2012-10-08 05:15:00
11:35 PM,35.6,32.0,87,30.23,10.0,SW,3.5,-,N/A,,Clear,220,2012-10-08 05:35:00
11:55 PM,37.4,32.0,81,30.22,10.0,Calm,Calm,-,N/A,,Clear,0,2012-10-08 05:55:00